CW5391 Weather Reports


Display with metric or nautical units.
time (UTC)temp
F
wind
direction
speed
MPH
gust
MPH
rain 1hr
in
rain 24hr
in
rain mn
in
humidity
%
barometer
mb
20260905210824 70 38 4.0 8.0 0.00 0.00 0.00 73 1008.4
20260905210328 70 312 4.0 13.0 0.00 0.00 0.00 71 1008.4
20260905205827 70 5 5.0 13.0 0.00 0.00 0.00 72 1008.4
20260905205327 70 15 4.0 11.0 0.00 0.00 0.00 73 1008.4
20260905204816 70 5 4.0 14.0 0.00 0.00 0.00 72 1008.4
20260905204326 71 16 5.0 14.0 0.00 0.00 0.00 70 1008.2
20260905203838 71 266 7.0 13.0 0.00 0.00 0.00 69 1008.2
20260905203314 71 316 6.0 12.0 0.00 0.00 0.00 70 1008.2
20260905202856 71 5 4.0 10.0 0.00 0.00 0.00 72 1008.1
20260905202320 71 275 4.0 10.0 0.00 0.00 0.00 73 1008.1
20260905201832 71 335 5.0 10.0 0.00 0.00 0.00 71 1008.1
20260905201321 71 355 5.0 10.0 0.00 0.00 0.00 71 1008.0
20260905200849 71 292 5.0 10.0 0.00 0.00 0.00 74 1008.0
20260905200337 71 360 3.0 10.0 0.00 0.00 0.00 75 1008.0
20260905195815 70 348 6.0 12.0 0.00 0.00 0.00 75 1008.1
20260905195327 69 9 6.0 12.0 0.00 0.00 0.00 75 1008.1
20260905194851 69 311 4.0 8.0 0.00 0.00 0.00 76 1008.1
20260905194316 69 355 3.0 6.0 0.00 0.00 0.00 78 1008.2
20260905193827 69 360 3.0 9.0 0.00 0.00 0.00 77 1008.2
20260905193339 69 308 4.0 9.0 0.00 0.00 0.00 77 1008.2
20260905192822 69 339 5.0 10.0 0.00 0.00 0.00 76 1008.1
20260905192321 69 327 6.0 10.0 0.00 0.00 0.00 74 1008.1
20260905191825 70 334 5.0 10.0 0.00 0.00 0.00 74 1008.1
20260905191313 71 331 4.0 8.0 0.00 0.00 0.00 75 1008.1
20260905190819 71 347 4.0 8.0 0.00 0.00 0.00 74 1008.1
20260905190322 71 19 3.0 9.0 0.00 0.00 0.00 77 1008.1
20260905185828 71 327 3.0 9.0 0.00 0.00 0.00 78 1008.2
20260905185335 70 328 4.0 9.0 0.00 0.00 0.00 76 1008.2
20260905184829 70 321 4.0 9.0 0.00 0.00 0.00 76 1008.2
20260905184318 70 349 4.0 9.0 0.00 0.00 0.00 76 1008.1
20260905183836 69 333 4.0 9.0 0.00 0.00 0.00 77 1008.1
20260905183342 69 345 4.0 9.0 0.00 0.00 0.00 78 1008.1
20260905182826 69 323 4.0 9.0 0.00 0.00 0.00 79 1008.1
20260905182318 70 311 5.0 12.0 0.00 0.00 0.00 78 1008.1
20260905181824 71 303 5.0 12.0 0.00 0.00 0.00 76 1008.1
20260905181343 71 329 3.0 7.0 0.00 0.00 0.00 78 1008.1
20260905180815 70 315 3.0 8.0 0.00 0.00 0.00 78 1008.1
20260905180350 70 331 3.0 7.0 0.00 0.00 0.00 76 1008.1
20260905175818 70 67 3.0 7.0 0.00 0.00 0.00 78 1008.2
20260905175320 70 312 2.0 5.0 0.00 0.00 0.00 78 1008.2
20260905174813 70 312 3.0 7.0 0.00 0.00 0.00 80 1008.2
20260905174340 69 24 4.0 7.0 0.00 0.00 0.00 79 1008.3
20260905173826 69 323 3.0 8.0 0.00 0.00 0.00 82 1008.3
20260905173329 69 292 3.0 8.0 0.00 0.00 0.00 82 1008.3
20260905172832 68 334 3.0 8.0 0.00 0.00 0.00 83 1008.2
20260905172334 68 321 5.0 8.0 0.00 0.00 0.00 82 1008.2
20260905171817 68 338 4.0 8.0 0.00 0.00 0.00 81 1008.2
20260905171319 69 291 2.0 9.0 0.00 0.00 0.00 81 1008.2
20260905170825 69 15 3.0 9.0 0.00 0.00 0.00 80 1008.2
20260905170328 69 338 4.0 8.0 0.00 0.00 0.00 79 1008.2
20260905165814 69 30 3.0 10.0 0.00 0.00 0.00 80 1008.2
20260905165314 69 303 3.0 10.0 0.00 0.00 0.00 81 1008.2
20260905164820 69 321 3.0 11.0 0.00 0.00 0.00 80 1008.2
20260905164325 69 343 4.0 10.0 0.00 0.00 0.00 82 1008.3
20260905163814 69 305 4.0 9.0 0.00 0.00 0.00 82 1008.3
20260905163311 69 330 4.0 10.0 0.00 0.00 0.00 85 1008.3
20260905162830 69 272 4.0 8.0 0.00 0.00 0.00 84 1008.5
20260905162330 68 331 4.0 7.0 0.00 0.00 0.00 83 1008.5
20260905161813 68 324 4.0 7.0 0.00 0.00 0.00 86 1008.5
20260905161344 68 344 3.0 7.0 0.00 0.00 0.00 87 1008.5
20260905160817 67 283 3.0 7.0 0.00 0.00 0.00 90 1008.5
20260905160347 67 347 3.0 6.0 0.00 0.00 0.00 90 1008.5
20260905155847 66 333 3.0 8.0 0.00 0.00 0.00 91 1008.7
20260905155352 65 313 3.0 7.0 0.00 0.00 0.00 90 1008.7
20260905154834 65 300 3.0 6.0 0.00 0.00 0.00 91 1008.7
20260905154323 65 294 3.0 12.0 0.00 0.00 0.00 90 1008.9
20260905153814 65 349 3.0 12.0 0.00 0.00 0.00 90 1008.9
20260905153317 65 347 4.0 12.0 0.00 0.00 0.00 87 1008.9
20260905152855 66 360 4.0 12.0 0.00 0.00 0.00 86 1008.8
20260905152313 66 313 4.0 9.0 0.00 0.00 0.00 84 1008.8
20260905151820 67 304 4.0 7.0 0.00 0.00 0.00 84 1008.8
20260905151326 66 326 4.0 8.0 0.00 0.00 0.00 85 1008.8
20260905150831 66 355 4.0 8.0 0.00 0.00 0.00 85 1008.8
20260905150344 66 63 4.0 7.0 0.00 0.00 0.00 85 1008.8
20260905145824 66 310 3.0 9.0 0.00 0.00 0.00 87 1008.5
20260905145317 66 360 4.0 8.0 0.00 0.00 0.00 88 1008.5
20260905144825 66 300 3.0 8.0 0.00 0.00 0.00 87 1008.5
20260905144407 66 289 3.0 7.0 0.00 0.00 0.00 88 1008.6
20260905143847 65 331 3.0 6.0 0.00 0.00 0.00 90 1008.6
20260905143321 65 268 2.0 6.0 0.00 0.00 0.00 90 1008.6
20260905142830 65 5 2.0 6.0 0.00 0.00 0.00 89 1008.7
20260905142342 65 294 3.0 8.0 0.00 0.00 0.00 88 1008.7
20260905141824 65 312 4.0 11.0 0.00 0.00 0.00 87 1008.7
20260905141330 65 17 4.0 11.0 0.00 0.00 0.00 88 1008.7
20260905140817 65 316 3.0 8.0 0.00 0.00 0.00 88 1008.7
20260905140340 65 323 2.0 6.0 0.00 0.00 0.00 90 1008.7
20260905135829 64 314 2.0 5.0 0.00 0.00 0.00 91 1008.6
20260905135322 64 312 3.0 9.0 0.00 0.00 0.00 91 1008.6
20260905134838 64 347 3.0 9.0 0.00 0.00 0.00 93 1008.6
20260905134323 63 339 4.0 9.0 0.00 0.00 0.00 93 1008.7
20260905133815 63 355 3.0 6.0 0.00 0.00 0.00 95 1008.7
20260905133318 62 321 2.0 6.0 0.00 0.00 0.00 95 1008.7
20260905132837 62 346 2.0 5.0 0.00 0.00 0.00 96 1008.5
20260905132313 62 339 2.0 5.0 0.00 0.00 0.00 97 1008.5
20260905131822 61 29 2.0 5.0 0.00 0.00 0.00 97 1008.5
20260905131330 61 332 2.0 5.0 0.00 0.00 0.00 97 1008.5
20260905130842 61 333 1.0 4.0 0.00 0.00 0.00 98 1008.5
20260905130325 61 309 0.0 2.0 0.00 0.00 0.00 98 1008.5
20260905125816 61 309 0.0 2.0 0.00 0.00 0.00 98 1008.4
20260905125352 61 343 0.0 3.0 0.00 0.00 0.00 98 1008.4
20260905124844 61 343 0.0 3.0 0.00 0.00 0.00 98 1008.4
20260905124326 60 332 0.0 3.0 0.00 0.00 0.00 98 1008.4
20260905123829 60 332 0.0 3.0 0.00 0.00 0.00 98 1008.4
20260905123320 60 332 327.0 3.0 0.00 0.00 0.00 98 1008.4
20260905122836 60 332 327.0 0.0 0.00 0.00 0.00 98 1008.3
20260905122329 0 0.0 0.0 0.00 0.00 0.00 1008.3
20260905121832 0 0.0 0.0 0.00 0.00 0.00 1008.3
20260905121315 0 0.0 0.0 0.00 0.00 0.00 1008.1
20260905120315 0 0.0 0.0 0.00 0.00 0.00 1008.1
20260905115820 0 0.0 0.0 0.00 0.00 0.00 1007.9
20260905115323 0 0.0 0.0 0.00 0.00 0.00 1007.9
20260905114822 0 0.0 0.0 0.00 0.00 0.00 1007.9
20260905114338 0 0.0 0.0 0.00 0.00 0.00 1007.9
20260905113829 0 0.0 0.0 0.00 0.00 0.00 1007.9
20260905112840 0 0.0 0.0 0.00 0.00 0.00 1007.9
20260905112330 0 0.0 0.0 0.00 0.00 0.00 1007.9
20260905111813 0 0.0 0.0 0.00 0.00 0.00 1007.9
20260905111324 0 0.0 0.0 0.00 0.00 0.00 1007.6
20260905110848 0 0.0 0.0 0.00 0.00 0.00 1007.6
20260905110335 0 0.0 0.0 0.00 0.00 0.00 1007.6
20260905105831 0 0.0 0.0 0.00 0.00 0.00 1007.5
20260905105321 0 0.0 0.0 0.00 0.00 0.00 1007.5
20260905104824 0 0.0 0.0 0.00 0.00 0.00 1007.5
20260905103831 0 0.0 0.0 0.00 0.00 0.00 1007.4
20260905103336 0 0.0 0.0 0.00 0.00 0.00 1007.4
20260905102826 0 0.0 0.0 0.00 0.00 0.00 1007.3
20260905102324 0 0.0 0.0 0.00 0.00 0.00 1007.3
20260905101828 0 0.0 0.0 0.00 0.00 0.00 1007.3
20260905101316 0 0.0 0.0 0.00 0.00 0.00 1007.3
20260905100317 0 0.0 0.0 0.00 0.00 0.00 1007.3
20260905095821 0 0.0 0.0 0.00 0.00 0.00 1007.3
20260905095325 0 0.0 0.0 0.00 0.00 0.00 1007.3
20260905094833 0 0.0 0.0 0.00 0.00 0.00 1007.3
20260905094336 0 0.0 0.0 0.00 0.00 0.00 1007.2
20260905093841 0 0.0 0.0 0.00 0.00 0.00 1007.2
20260905093410 56 332 0.0 0.0 0.00 0.00 0.00 96 1007.2
20260905092838 56 332 0.0 0.0 0.00 0.00 0.00 96 1007.0
20260905092319 56 332 0.0 0.0 0.00 0.00 0.00 96 1007.0
20260905091850 56 332 0.0 0.0 0.00 0.00 0.00 96 1007.0
20260905091315 56 332 0.0 0.0 0.00 0.00 0.00 96 1007.1
20260905090812 56 332 0.0 0.0 0.00 0.00 0.00 96 1007.1
20260905090326 56 332 0.0 0.0 0.00 0.00 0.00 96 1007.1
20260905085827 57 332 0.0 0.0 0.00 0.00 0.00 96 1006.9
20260905085334 57 332 0.0 0.0 0.00 0.00 0.00 96 1006.9
20260905084839 57 332 0.0 0.0 0.00 0.00 0.00 96 1006.9
20260905084345 57 332 0.0 0.0 0.00 0.00 0.00 96 1006.9
20260905083837 57 332 0.0 0.0 0.00 0.00 0.00 96 1006.9
20260905083328 57 332 0.0 0.0 0.00 0.00 0.00 96 1006.9
20260905082843 57 332 0.0 0.0 0.00 0.00 0.00 96 1006.9
20260905082336 57 332 0.0 0.0 0.00 0.00 0.00 96 1006.9
20260905081819 57 332 0.0 0.0 0.00 0.00 0.00 96 1006.9
20260905081324 57 332 0.0 0.0 0.00 0.00 0.00 96 1006.9
20260905080827 57 332 0.0 0.0 0.00 0.00 0.00 96 1006.9
20260905080334 57 332 0.0 0.0 0.00 0.00 0.00 96 1006.9
20260905075836 57 332 0.0 0.0 0.00 0.00 0.00 96 1006.9
20260905075323 57 332 0.0 0.0 0.00 0.00 0.00 96 1006.9
20260905074828 57 332 0.0 0.0 0.00 0.00 0.00 96 1006.9
20260905074314 57 332 0.0 0.0 0.00 0.00 0.00 95 1007.0
20260905073821 57 332 0.0 0.0 0.00 0.00 0.00 95 1007.0
20260905073334 57 332 0.0 0.0 0.00 0.00 0.00 95 1007.0
20260905072826 58 332 0.0 0.0 0.00 0.00 0.00 95 1007.0
20260905072316 58 332 0.0 0.0 0.00 0.00 0.00 95 1007.0
20260905071825 58 332 0.0 0.0 0.00 0.00 0.00 95 1007.0
20260905071315 58 332 0.0 0.0 0.00 0.00 0.00 96 1007.3
20260905070845 58 332 0.0 0.0 0.00 0.00 0.00 96 1007.3
20260905070350 58 332 0.0 0.0 0.00 0.00 0.00 96 1007.3
20260905065813 58 332 0.0 0.0 0.00 0.00 0.00 96 1007.4
20260905065338 58 332 0.0 0.0 0.00 0.00 0.00 96 1007.4
20260905064812 58 332 0.0 0.0 0.00 0.00 0.00 95 1007.4
20260905064316 58 332 0.0 0.0 0.00 0.00 0.00 96 1007.4
20260905063818 58 332 0.0 0.0 0.00 0.00 0.00 96 1007.4
20260905063322 58 332 0.0 0.0 0.00 0.00 0.00 96 1007.4
20260905062829 58 332 0.0 0.0 0.00 0.00 0.00 95 1007.4
20260905062321 58 332 0.0 0.0 0.00 0.00 0.00 95 1007.4
20260905061826 59 332 0.0 0.0 0.00 0.00 0.00 95 1007.4
20260905061313 58 332 0.0 0.0 0.00 0.00 0.00 95 1007.5
20260905060816 59 332 0.0 0.0 0.00 0.00 0.00 95 1007.5
20260905060341 59 332 0.0 0.0 0.00 0.00 0.00 95 1007.5
20260905055846 59 332 0.0 0.0 0.00 0.00 0.00 94 1007.5
20260905055332 59 332 0.0 0.0 0.00 0.00 0.00 94 1007.5
20260905054837 59 332 0.0 0.0 0.00 0.00 0.00 94 1007.5
20260905054317 59 332 0.0 0.0 0.00 0.00 0.00 94 1007.4
20260905053824 59 332 0.0 0.0 0.00 0.00 0.00 94 1007.4
20260905053315 59 332 0.0 0.0 0.00 0.00 0.00 94 1007.4
20260905052825 60 332 0.0 0.0 0.00 0.00 0.00 93 1007.4
20260905052332 60 332 0.0 0.0 0.00 0.00 0.00 94 1007.4
20260905051821 60 332 0.0 0.0 0.00 0.00 0.00 94 1007.4
20260905051350 60 332 0.0 0.0 0.00 0.00 0.00 94 1007.5
20260905050817 60 332 0.0 0.0 0.00 0.00 0.00 94 1007.5
20260905050318 60 332 0.0 0.0 0.00 0.00 0.00 94 1007.5
20260905045825 60 332 0.0 0.0 0.00 0.00 0.00 93 1007.5
20260905045405 60 332 0.0 0.0 0.00 0.00 0.00 93 1007.5
20260905044815 61 332 0.0 0.0 0.00 0.00 0.00 93 1007.5
20260905044326 61 332 0.0 0.0 0.00 0.00 0.00 92 1007.8
20260905043832 61 332 0.0 0.0 0.00 0.00 0.00 93 1007.8
20260905043331 61 332 0.0 1.0 0.00 0.00 0.00 92 1007.8
20260905042837 61 332 0.0 1.0 0.00 0.00 0.00 92 1007.9
20260905042328 61 332 0.0 1.0 0.00 0.00 0.00 92 1007.9
20260905041831 62 332 0.0 2.0 0.00 0.00 0.00 91 1007.9
20260905041315 62 332 0.0 2.0 0.00 0.00 0.00 90 1007.8
20260905040819 62 332 0.0 2.0 0.00 0.00 0.00 90 1007.8
20260905040315 63 332 0.0 2.0 0.00 0.00 0.00 90 1007.8
20260905035822 63 332 0.0 1.0 0.00 0.00 0.00 90 1007.8
20260905035332 63 332 0.0 1.0 0.00 0.00 0.00 90 1007.8
20260905034822 63 332 0.0 0.0 0.00 0.00 0.00 89 1007.8
20260905034350 63 332 0.0 0.0 0.00 0.00 0.00 89 1007.6
20260905033837 63 332 0.0 0.0 0.00 0.00 0.00 89 1007.6
20260905033323 63 332 0.0 0.0 0.00 0.00 0.00 89 1007.6
20260905032832 64 332 0.0 1.0 0.00 0.00 0.00 89 1007.5
20260905032320 64 332 0.0 2.0 0.00 0.00 0.00 89 1007.5
20260905031824 64 332 0.0 2.0 0.00 0.00 0.00 89 1007.5
20260905031328 64 332 0.0 0.0 0.00 0.00 0.00 89 1007.6
20260905030832 64 332 0.0 0.0 0.00 0.00 0.00 89 1007.6
20260905030342 64 332 0.0 0.0 0.00 0.00 0.00 89 1007.6
20260905025849 64 332 0.0 0.0 0.00 0.00 0.00 89 1007.8
20260905025331 64 332 0.0 0.0 0.00 0.00 0.00 89 1007.8
20260905024839 64 332 0.0 0.0 0.00 0.00 0.00 89 1007.8
20260905024323 64 332 0.0 0.0 0.00 0.00 0.00 89 1007.8
20260905023847 64 332 0.0 1.0 0.00 0.00 0.00 89 1007.8
20260905023328 65 332 0.0 2.0 0.00 0.00 0.00 89 1007.8
20260905022816 64 332 0.0 2.0 0.00 0.00 0.00 89 1007.8
20260905022346 65 332 0.0 0.0 0.00 0.00 0.00 89 1007.8
20260905021832 65 332 0.0 0.0 0.00 0.00 0.00 89 1007.8
20260905021317 65 332 0.0 0.0 0.00 0.00 0.00 89 1007.9
20260905020821 65 332 0.0 0.0 0.00 0.00 0.00 89 1007.9
20260905020325 65 332 0.0 2.0 0.00 0.00 0.00 89 1007.9
20260905015828 65 332 0.0 2.0 0.00 0.00 0.00 89 1007.9
20260905015336 65 332 0.0 0.0 0.00 0.00 0.00 88 1007.9
20260905014826 65 332 0.0 0.0 0.00 0.00 0.00 88 1007.9
20260905014329 65 332 0.0 0.0 0.00 0.00 0.00 88 1007.9
20260905013834 65 332 0.0 0.0 0.00 0.00 0.00 88 1007.9
20260905013331 65 332 0.0 0.0 0.00 0.00 0.00 88 1007.9
20260905012839 65 332 0.0 0.0 0.00 0.00 0.00 88 1008.0
20260905012322 65 332 0.0 5.0 0.00 0.00 0.00 88 1008.0
20260905011838 65 332 0.0 5.0 0.00 0.00 0.00 88 1008.0
20260905011344 65 332 0.0 5.0 0.00 0.00 0.00 87 1007.9
20260905010835 65 332 1.0 5.0 0.00 0.00 0.00 87 1007.9
20260905010328 65 332 1.0 7.0 0.00 0.00 0.00 87 1007.9
20260905005815 65 360 1.0 7.0 0.00 0.00 0.00 86 1007.8
20260905005321 65 355 0.0 3.0 0.00 0.00 0.00 87 1007.8
20260905004847 66 47 0.0 0.0 0.00 0.00 0.00 87 1007.8
20260905004331 66 47 0.0 0.0 0.00 0.00 0.00 86 1007.7
20260905003836 66 47 0.0 1.0 0.00 0.00 0.00 86 1007.7
20260905003317 66 47 0.0 1.0 0.00 0.00 0.00 85 1007.7
20260905002856 66 47 0.0 0.0 0.00 0.00 0.00 85 1007.5
20260905002327 66 47 0.0 0.0 0.00 0.00 0.00 83 1007.5
20260905001831 66 47 0.0 0.0 0.00 0.00 0.00 83 1007.5
20260905001315 67 47 0.0 2.0 0.00 0.00 0.00 83 1007.5
20260905000827 67 47 1.0 2.0 0.00 0.00 0.00 82 1007.5
20260905000313 67 47 1.0 2.0 0.00 0.00 0.00 83 1007.5
20260904235819 67 113 0.0 2.0 0.00 0.00 0.00 84 1007.4
20260904235345 67 113 0.0 1.0 0.00 0.00 0.00 83 1007.4
20260904234831 67 113 0.0 1.0 0.00 0.00 0.00 82 1007.4
20260904234316 68 113 0.0 1.0 0.00 0.00 0.00 83 1007.1
20260904233820 68 113 0.0 1.0 0.00 0.00 0.00 81 1007.1
20260904233346 68 113 0.0 1.0 0.00 0.00 0.00 81 1007.1
20260904232828 68 113 0.0 0.0 0.00 0.00 0.00 81 1007.2
20260904232335 69 113 0.0 1.0 0.00 0.00 0.00 80 1007.2
20260904231812 69 113 0.0 2.0 0.00 0.00 0.00 79 1007.2
20260904231332 69 113 1.0 2.0 0.00 0.00 0.00 78 1007.0
20260904230825 69 113 1.0 2.0 0.00 0.00 0.00 79 1007.0
20260904230318 69 56 1.0 2.0 0.00 0.00 0.00 79 1007.0
20260904225824 69 56 1.0 2.0 0.00 0.00 0.00 79 1007.0
20260904225325 70 269 0.0 2.0 0.00 0.00 0.00 79 1007.0
20260904224849 70 269 0.0 1.0 0.00 0.00 0.00 79 1007.0
20260904224333 70 269 0.0 2.0 0.00 0.00 0.00 80 1006.9
20260904223848 70 269 0.0 2.0 0.00 0.00 0.00 79 1006.9
20260904223335 70 87 0.0 3.0 0.00 0.00 0.00 78 1006.9
20260904222820 70 336 1.0 3.0 0.00 0.00 0.00 77 1006.9
20260904222324 71 46 1.0 3.0 0.00 0.00 0.00 78 1006.9
20260904221818 71 111 0.0 1.0 0.00 0.00 0.00 79 1006.9
20260904221325 71 111 1.0 4.0 0.00 0.00 0.00 78 1006.9
20260904220829 72 111 1.0 3.0 0.00 0.00 0.00 77 1006.9
20260904220320 72 44 1.0 4.0 0.00 0.00 0.00 76 1006.9
20260904215836 72 24 1.0 4.0 0.00 0.00 0.00 74 1006.9
20260904215326 72 15 1.0 3.0 0.00 0.00 0.00 73 1006.9
20260904214830 73 28 1.0 3.0 0.00 0.00 0.00 75 1006.9
20260904214338 73 14 1.0 3.0 0.00 0.00 0.00 76 1006.8
20260904213821 73 67 1.0 3.0 0.00 0.00 0.00 71 1006.8
20260904213348 74 336 1.0 8.0 0.00 0.00 0.00 75 1006.8
20260904212813 74 343 1.0 8.0 0.00 0.00 0.00 75 1007.0
20260904212312 74 343 2.0 8.0 0.00 0.00 0.00 74 1007.0
20260904211816 75 13 2.0 5.0 0.00 0.00 0.00 75 1007.0
20260904211323 75 11 1.0 5.0 0.00 0.00 0.00 74 1007.1